�������l�o���
Date,Time,MP-1(��Sv/h),MP-2(��Sv/h),MP-3(��Sv/h),MP-4(��Sv/h),MP-5(��Sv/h),MP-6(��Sv/h),MP-7(��Sv/h),MP-8(��Sv/h),����,����(m/s),���J
2022/07/02,00:00,0.602,0.881,0.559,1.067,0.759,0.351,0.606,0.571,�쐼,1.9,��
2022/07/02,00:10,0.602,0.880,0.557,1.063,0.761,0.352,0.605,0.570,��쐼,3.0,��
2022/07/02,00:20,0.602,0.882,0.558,1.069,0.760,0.350,0.608,0.569,�쐼,3.4,��
2022/07/02,00:30,0.604,0.883,0.557,1.065,0.760,0.350,0.607,0.570,��쐼,3.5,��
2022/07/02,00:40,0.602,0.880,0.557,1.068,0.759,0.350,0.606,0.569,��쐼,3.1,��
2022/07/02,00:50,0.603,0.882,0.558,1.067,0.758,0.350,0.606,0.568,��쐼,3.4,��
2022/07/02,01:00,0.603,0.882,0.556,1.068,0.760,0.350,0.607,0.568,��쐼,3.1,��
2022/07/02,01:10,0.604,0.882,0.557,1.066,0.761,0.350,0.607,0.570,�쐼,2.3,��
2022/07/02,01:20,0.601,0.882,0.556,1.068,0.761,0.348,0.606,0.571,���쐼,1.9,��
2022/07/02,01:30,0.603,0.882,0.556,1.065,0.761,0.350,0.606,0.571,���k��,1.2,��
2022/07/02,01:40,0.601,0.883,0.556,1.065,0.762,0.349,0.605,0.570,�k,1.2,��
2022/07/02,01:50,0.603,0.882,0.558,1.067,0.762,0.348,0.607,0.570,�k,1.7,��
2022/07/02,02:00,0.604,0.883,0.558,1.067,0.760,0.350,0.606,0.570,�k�k��,1.4,��
2022/07/02,02:10,0.603,0.883,0.556,1.067,0.761,0.350,0.606,0.569,�k�k��,2.6,��
2022/07/02,02:20,0.603,0.882,0.557,1.065,0.760,0.350,0.605,0.570,�k,2.5,��
2022/07/02,02:30,0.603,0.881,0.558,1.069,0.758,0.351,0.604,0.571,�k�k��,2.2,��
2022/07/02,02:40,0.603,0.883,0.556,1.066,0.760,0.351,0.607,0.571,�k�k��,2.3,��
2022/07/02,02:50,0.602,0.883,0.557,1.068,0.762,0.350,0.606,0.571,�k�k��,2.6,��
2022/07/02,03:00,0.601,0.882,0.557,1.067,0.760,0.350,0.604,0.571,�k�k��,3.6,��
2022/07/02,03:10,0.601,0.884,0.558,1.066,0.761,0.349,0.605,0.570,�k��,3.3,��
2022/07/02,03:20,0.604,0.881,0.558,1.066,0.762,0.350,0.606,0.570,�k��,2.6,��
2022/07/02,03:30,0.604,0.884,0.558,1.068,0.761,0.351,0.606,0.569,�k��,2.0,��
2022/07/02,03:40,0.603,0.881,0.559,1.067,0.759,0.350,0.607,0.569,�k��,2.0,��
2022/07/02,03:50,0.603,0.884,0.558,1.068,0.760,0.349,0.607,0.570,�k�k��,3.1,��
2022/07/02,04:00,0.602,0.880,0.558,1.068,0.761,0.351,0.607,0.570,�k�k��,3.2,��
2022/07/02,04:10,0.604,0.882,0.558,1.067,0.758,0.349,0.607,0.571,�k��,2.3,��
2022/07/02,04:20,0.602,0.880,0.557,1.067,0.761,0.351,0.605,0.570,�k��,2.6,��
2022/07/02,04:30,0.603,0.879,0.557,1.067,0.759,0.350,0.608,0.570,�k��,2.8,��
2022/07/02,04:40,0.604,0.882,0.557,1.066,0.761,0.350,0.608,0.570,�k��,3.2,��
2022/07/02,04:50,0.601,0.884,0.560,1.067,0.762,0.349,0.606,0.570,�k�k��,4.6,��
2022/07/02,05:00,0.602,0.883,0.557,1.069,0.760,0.349,0.605,0.571,�k�k��,5.9,��
2022/07/02,05:10,0.601,0.882,0.557,1.071,0.761,0.350,0.606,0.571,�k�k��,5.8,��
2022/07/02,05:20,0.600,0.882,0.557,1.068,0.760,0.350,0.605,0.570,�k,5.6,��
2022/07/02,05:30,0.600,0.884,0.556,1.066,0.761,0.348,0.606,0.570,�k�k��,5.5,��
2022/07/02,05:40,0.599,0.883,0.555,1.066,0.760,0.348,0.605,0.572,�k�k��,6.0,��
2022/07/02,05:50,0.599,0.883,0.555,1.067,0.758,0.349,0.608,0.570,�k�k��,4.9,��
2022/07/02,06:00,0.599,0.881,0.555,1.065,0.759,0.348,0.606,0.569,�k�k��,4.2,��
2022/07/02,06:10,0.599,0.879,0.555,1.068,0.759,0.348,0.606,0.570,�k�k��,4.3,��
2022/07/02,06:20,0.597,0.880,0.555,1.067,0.759,0.346,0.605,0.571,�k,4.0,��
2022/07/02,06:30,0.598,0.880,0.552,1.066,0.757,0.350,0.606,0.572,�k�k��,4.6,��
2022/07/02,06:40,0.600,0.881,0.554,1.063,0.758,0.348,0.605,0.569,�k,3.8,��
2022/07/02,06:50,0.599,0.881,0.554,1.065,0.758,0.348,0.606,0.570,�k,3.6,��
2022/07/02,07:00,0.599,0.881,0.555,1.063,0.756,0.348,0.606,0.570,�k,4.9,��
2022/07/02,07:10,0.598,0.879,0.557,1.063,0.758,0.349,0.606,0.571,�k,3.8,��
2022/07/02,07:20,0.599,0.877,0.555,1.066,0.758,0.349,0.604,0.570,�k,4.0,��
2022/07/02,07:30,0.597,0.879,0.555,1.063,0.757,0.350,0.607,0.571,�k,4.3,��
2022/07/02,07:40,0.599,0.880,0.552,1.065,0.755,0.348,0.605,0.569,�k�k��,4.5,��
2022/07/02,07:50,0.599,0.878,0.554,1.065,0.757,0.349,0.606,0.570,�k,3.7,��
2022/07/02,08:00,0.601,0.878,0.555,1.064,0.756,0.349,0.605,0.568,�k�k��,3.6,��
2022/07/02,08:10,0.600,0.879,0.554,1.065,0.757,0.349,0.605,0.566,�k��,4.0,��
2022/07/02,08:20,0.599,0.879,0.553,1.066,0.757,0.349,0.607,0.569,�k��,4.2,��
2022/07/02,08:30,0.599,0.879,0.555,1.065,0.757,0.347,0.606,0.568,�k��,3.6,��
2022/07/02,08:40,0.600,0.880,0.555,1.066,0.757,0.348,0.603,0.568,�k��,3.3,��
2022/07/02,08:50,0.599,0.878,0.553,1.065,0.758,0.349,0.607,0.566,�k��,3.5,��
2022/07/02,09:00,0.598,0.879,0.554,1.064,0.758,0.348,0.606,0.570,�k��,3.7,��
2022/07/02,09:10,0.600,0.878,0.555,1.067,0.758,0.348,0.606,0.569,�k��,3.0,��
2022/07/02,09:20,0.599,0.881,0.554,1.064,0.758,0.349,0.607,0.569,�k��,3.0,��
2022/07/02,09:30,0.601,0.882,0.554,1.063,0.758,0.348,0.606,0.570,�k��,3.6,��
2022/07/02,09:40,0.600,0.882,0.554,1.065,0.761,0.348,0.609,0.569,���k��,4.4,��
2022/07/02,09:50,0.601,0.881,0.555,1.065,0.760,0.347,0.608,0.569,���k��,4.3,��
2022/07/02,10:00,0.602,0.882,0.556,1.067,0.759,0.349,0.608,0.569,�k��,3.1,��
2022/07/02,10:10,0.601,0.882,0.556,1.067,0.761,0.348,0.607,0.569,���k��,2.9,��
2022/07/02,10:20,0.601,0.883,0.557,1.066,0.762,0.347,0.606,0.569,��,3.0,��
2022/07/02,10:30,0.602,0.883,0.554,1.066,0.761,0.348,0.606,0.569,��,3.1,��
2022/07/02,10:40,0.604,0.880,0.556,1.065,0.761,0.348,0.604,0.569,��,3.3,��
2022/07/02,10:50,0.603,0.882,0.555,1.067,0.761,0.349,0.604,0.568,��,2.8,��
2022/07/02,11:00,0.603,0.883,0.555,1.067,0.761,0.348,0.606,0.569,��,2.6,��
2022/07/02,11:10,0.600,0.883,0.554,1.065,0.761,0.350,0.605,0.569,��,2.3,��
2022/07/02,11:20,0.603,0.881,0.556,1.065,0.759,0.349,0.605,0.568,��,3.8,��
2022/07/02,11:30,0.602,0.883,0.556,1.065,0.761,0.349,0.605,0.569,��,3.2,��
2022/07/02,11:40,0.602,0.881,0.556,1.065,0.762,0.350,0.607,0.570,���쓌,3.6,��
2022/07/02,11:50,0.602,0.882,0.555,1.064,0.761,0.349,0.606,0.569,�쓌,3.2,��
2022/07/02,12:00,0.605,0.884,0.557,1.065,0.762,0.349,0.607,0.569,�쓌,2.8,��
2022/07/02,12:10,0.604,0.885,0.557,1.068,0.763,0.349,0.607,0.570,�쓌,3.8,��
2022/07/02,12:20,0.605,0.886,0.556,1.066,0.762,0.350,0.607,0.570,�쓌,4.3,��
2022/07/02,12:30,0.604,0.884,0.557,1.067,0.762,0.349,0.606,0.572,�쓌,3.5,��
2022/07/02,12:40,0.604,0.884,0.557,1.068,0.763,0.350,0.608,0.568,�쓌,3.1,��
2022/07/02,12:50,0.604,0.884,0.558,1.066,0.764,0.351,0.606,0.570,�쓌,4.5,��
2022/07/02,13:00,0.604,0.885,0.556,1.069,0.763,0.348,0.607,0.571,��쓌,4.2,��
2022/07/02,13:10,0.603,0.883,0.557,1.067,0.765,0.350,0.607,0.570,�쓌,4.5,��
2022/07/02,13:20,0.602,0.885,0.558,1.066,0.764,0.349,0.606,0.571,��쓌,4.8,��
2022/07/02,13:30,0.603,0.884,0.556,1.068,0.761,0.347,0.608,0.573,�쓌,5.0,��
2022/07/02,13:40,0.602,0.885,0.558,1.066,0.765,0.349,0.608,0.572,�쓌,5.1,��
2022/07/02,13:50,0.602,0.885,0.558,1.068,0.764,0.349,0.606,0.573,�쓌,5.5,��
2022/07/02,14:00,0.604,0.885,0.560,1.067,0.763,0.349,0.608,0.573,�쓌,6.3,��
2022/07/02,14:10,0.605,0.884,0.560,1.068,0.764,0.348,0.609,0.572,�쓌,6.2,��
2022/07/02,14:20,0.604,0.885,0.558,1.069,0.763,0.351,0.611,0.572,�쓌,5.2,��
2022/07/02,14:30,0.606,0.886,0.560,1.068,0.765,0.351,0.611,0.572,�쓌,6.0,��
2022/07/02,14:40,0.604,0.886,0.561,1.070,0.765,0.351,0.612,0.572,�쓌,5.0,��
2022/07/02,14:50,0.607,0.886,0.560,1.069,0.764,0.351,0.610,0.571,�쓌,4.4,��
2022/07/02,15:00,0.606,0.886,0.559,1.067,0.764,0.351,0.609,0.571,��쓌,4.5,��
2022/07/02,15:10,0.604,0.885,0.560,1.068,0.765,0.351,0.612,0.569,�쓌,4.3,��
2022/07/02,15:20,0.607,0.885,0.561,1.071,0.764,0.351,0.608,0.571,�쓌,4.1,��
2022/07/02,15:30,0.606,0.887,0.560,1.072,0.765,0.351,0.610,0.570,��쓌,5.0,��
2022/07/02,15:40,0.605,0.887,0.561,1.071,0.765,0.350,0.610,0.569,��쓌,4.5,��
2022/07/02,15:50,0.603,0.887,0.559,1.072,0.765,0.349,0.608,0.570,��쓌,4.5,��
2022/07/02,16:00,0.604,0.886,0.561,1.071,0.766,0.350,0.609,0.569,��쓌,4.8,��
2022/07/02,16:10,0.604,0.888,0.560,1.070,0.762,0.352,0.608,0.569,��쓌,4.8,��
2022/07/02,16:20,0.607,0.887,0.561,1.074,0.765,0.350,0.608,0.569,��쓌,3.9,��
2022/07/02,16:30,0.605,0.887,0.560,1.072,0.764,0.350,0.607,0.570,��쓌,4.0,��
2022/07/02,16:40,0.606,0.886,0.558,1.074,0.765,0.349,0.607,0.569,��쓌,5.4,��
2022/07/02,16:50,0.605,0.887,0.558,1.072,0.765,0.349,0.608,0.570,��쓌,4.9,��
2022/07/02,17:00,0.606,0.888,0.559,1.073,0.765,0.351,0.608,0.571,��,6.0,��
2022/07/02,17:10,0.607,0.886,0.558,1.072,0.767,0.349,0.608,0.570,��쓌,5.9,��
2022/07/02,17:20,0.606,0.886,0.560,1.071,0.766,0.349,0.607,0.570,��쓌,4.9,��
2022/07/02,17:30,0.606,0.886,0.559,1.072,0.765,0.352,0.609,0.571,��쓌,5.2,��
2022/07/02,17:40,0.606,0.886,0.557,1.073,0.765,0.350,0.608,0.571,�쓌,1.1,��
2022/07/02,17:50,0.605,0.886,0.558,1.071,0.764,0.350,0.608,0.570,��쓌,5.0,��
2022/07/02,18:00,0.606,0.886,0.558,1.071,0.766,0.349,0.609,0.570,��쓌,4.8,��
2022/07/02,18:10,0.605,0.886,0.560,1.071,0.766,0.349,0.607,0.569,��쓌,3.5,��
2022/07/02,18:20,0.605,0.887,0.558,1.072,0.765,0.349,0.608,0.571,��쓌,3.6,��
2022/07/02,18:30,0.606,0.884,0.556,1.071,0.763,0.349,0.607,0.571,�쓌,3.1,��
2022/07/02,18:40,0.605,0.883,0.558,1.072,0.763,0.349,0.608,0.570,��쓌,3.6,��
2022/07/02,18:50,0.606,0.885,0.557,1.072,0.764,0.349,0.606,0.570,��쓌,2.8,��
2022/07/02,19:00,0.606,0.883,0.559,1.075,0.767,0.349,0.607,0.569,��쓌,3.5,��
2022/07/02,19:10,0.603,0.884,0.557,1.072,0.767,0.348,0.607,0.570,��쓌,3.9,��
2022/07/02,19:20,0.604,0.884,0.558,1.072,0.766,0.348,0.607,0.569,��,4.1,��
2022/07/02,19:30,0.605,0.884,0.559,1.072,0.764,0.348,0.607,0.571,��,4.6,��
2022/07/02,19:40,0.606,0.885,0.557,1.071,0.764,0.348,0.607,0.571,��,4.7,��
2022/07/02,19:50,0.605,0.887,0.558,1.071,0.765,0.349,0.607,0.568,��,4.7,��
2022/07/02,20:00,0.605,0.885,0.558,1.071,0.767,0.349,0.606,0.571,��,4.2,��
2022/07/02,20:10,0.606,0.886,0.559,1.073,0.765,0.349,0.607,0.572,��,3.9,��
2022/07/02,20:20,0.606,0.886,0.558,1.071,0.767,0.350,0.608,0.571,��쐼,3.2,��
2022/07/02,20:30,0.606,0.886,0.559,1.072,0.764,0.351,0.609,0.571,��,1.9,��
2022/07/02,20:40,0.606,0.887,0.561,1.072,0.767,0.350,0.608,0.571,��,0.9,��
2022/07/02,20:50,0.607,0.886,0.559,1.072,0.766,0.351,0.608,0.571,��,1.9,��
2022/07/02,21:00,0.606,0.888,0.559,1.069,0.765,0.351,0.608,0.572,��,1.7,��
2022/07/02,21:10,0.607,0.888,0.558,1.070,0.766,0.352,0.608,0.571,��,2.0,��
2022/07/02,21:20,0.607,0.888,0.561,1.073,0.765,0.351,0.607,0.571,��,1.2,��
2022/07/02,21:30,0.608,0.885,0.560,1.074,0.766,0.351,0.607,0.572,��,1.4,��
2022/07/02,21:40,0.605,0.886,0.560,1.072,0.765,0.353,0.608,0.570,��쓌,1.4,��
2022/07/02,21:50,0.607,0.887,0.558,1.072,0.766,0.352,0.607,0.571,��쓌,1.1,��
2022/07/02,22:00,0.605,0.888,0.557,1.073,0.765,0.351,0.608,0.571,��,1.1,��
2022/07/02,22:10,0.604,0.886,0.560,1.072,0.767,0.350,0.607,0.571,��쓌,1.2,��
2022/07/02,22:20,0.606,0.886,0.558,1.073,0.768,0.350,0.607,0.570,��쐼,0.9,��
2022/07/02,22:30,0.606,0.888,0.560,1.073,0.767,0.352,0.608,0.572,��,0.9,��
2022/07/02,22:40,0.607,0.887,0.558,1.073,0.768,0.351,0.608,0.573,��,0.9,��
2022/07/02,22:50,0.609,0.888,0.562,1.074,0.766,0.351,0.608,0.570,��,1.2,��
2022/07/02,23:00,0.608,0.890,0.560,1.075,0.768,0.351,0.607,0.572,��,1.1,��
2022/07/02,23:10,0.608,0.888,0.562,1.075,0.765,0.351,0.610,0.571,��,0.6,��
2022/07/02,23:20,0.605,0.887,0.560,1.074,0.768,0.351,0.608,0.572,��쓌,0.8,��
2022/07/02,23:30,0.607,0.887,0.561,1.073,0.767,0.352,0.609,0.572,��,0.6,��
2022/07/02,23:40,0.605,0.888,0.561,1.074,0.767,0.350,0.609,0.572,��,0.6,��
2022/07/02,23:50,0.609,0.888,0.562,1.074,0.768,0.350,0.607,0.572,-,CALM,��
